CZ-6A DEB, 61451

Orbit data source: Space-Track

CZ-6A DEB, 61451 is space debris in LEO originally from a launch on Tue, 06 Aug 2024 UTC launched from the Taiyaun Space Center, China (TSC). Debris objects in space refer to the collection of defunct objects orbiting the Earth. Examples of debris include non-operational satellites, rocket bodies, and fragments generated from explosions, collisions, or faulty payload assembly.

Loading next visibility...
Identifier
61451, 2024-140ZH
Orbit
LEO
Country
Flag of CNCN / PRC
Related business
Manufacturer
SAST
Mission
Spacecraft
Bus & Motor
Unknown
Mass
Unknown
Launch date (UTC)
2024-08-06 (2 years ago)
Launch vehicle
Unknown
Launch site
Taiyaun Space Center, China (TSC)
Object type
Payload
Rocket body
Debris
Shape & HBR
Unknown shape, 0.1 m
Radar Cross Section
Medium (>0.1 m² and <1 m²)

Expand to show TLE details & history
Last TLE update: 16 hours ago

TLE from 16 hours ago
0 CZ-6A DEB
1 61451U 24140ZH  26171.29921353  .00005050  00000-0  86613-3 0  9996
2 61451  89.0395 272.7574 0109018 231.4614 127.6792 14.64734435 93712
Epoch: 2026-06-20T07:10Z
TLE epoch observation values (Epoch: 2026-06-20T07:10:52.048Z)
Latitude
-0.00007°
Longitude
-103.4753°
Altitude
728.595 km
Speed
7.466 km/s
True Right ascension
18h 11m 01s
True Declination
0° 00' 00"
Sunlit
Object was in full shadow at epoch
Visualization orbit readout
Latitude
Unknown
Longitude
Unknown
Altitude
Unknown
Speed
Unknown
Apparent Right ascension
Unknown
Apparent Declination
Unknown
Sunlit
N/A
Visualization observer readout
Local Sidereal Time
10:18:58
Azimuth
Unknown
Elevation
Unknown
Doppler factor
Unknown
Orbital elements
Apogee altitude
751.705 km
Perigee altitude
597.925 km
Semi-major axis
7,052.952 km
Eccentricity
0.0109
Inclination
89.0395°
RAAN
272.7574°
Arg. of periapsis
231.4614°
True anomaly
128.6597°
Mean anomaly
127.6792°
Eccentric anomaly
128.17027°
Mean motion
3.66426 °/min
Orbital period
98.25 mins
BSTAR
0.00086613
Loading maneuver chart data...
Computing Atmospheric mass density...
Loading historical data...
Loading historical data...
Loading historical data...
Loading historical data...
Loading historical data...
Loading historical data...
Loading historical data...

Documentation

Showing up to 5 results
|